Location: Unspecified
(0.0000°N, 0.0000°E)
Time: 23:41:47
(UTC+00:00)

S-56A Canister/Altair - Pass Details

Date: 03 October 2020
Orbit: 633 x 2499 km, 38.9° (Epoch: 28 October)

Event Time Altitude Azimuth Distance (km) Brightness Sun altitude
Rises 21:03:03 0° 315° (NW) 5,132 12.1 -48.4°
Reaches altitude 10° 21:06:57 10° 317° (NW) 3,842 11.3 -49.3°
Enters shadow 21:09:29 19° 319° (NW) 2,988 10.6 -50.0°
Maximum altitude 21:16:17 71° 40° (NE) 1,217 - -51.7°
Drops below altitude 10° 21:22:22 10° 123° (ESE) 2,564 - -53.2°
Sets 21:24:30 0° 126° (SE) 3,344 - -53.7°
